This is the latest recevied weather packets stored in our database for station/object JO1YDG-13. If no packets are shown the sender has not sent any weather packets the latest 10 day(s).
| Time | Temp. | Humidity | Pressure | Rain* | Wind** | Luminosity | Snow |
|---|---|---|---|---|---|---|---|
| 1777832422 | 15.56° C | 99% | 971.5 hPa | 4.06 mm | - | - | - |
| 1777829722 | 15.56° C | 97% | 972.6 hPa | 2.54 mm | - | - | - |
| 1777828221 | 15.56° C | 96% | 972.9 hPa | 1.52 mm | - | - | - |
| 1777826421 | 15.56° C | 96% | 973.8 hPa | 0.25 mm | - | - | - |
| 1777824022 | 15.56° C | 94% | 974.6 hPa | 0.25 mm | - | - | - |
| 1777823722 | 15.56° C | 94% | 974.6 hPa | 0 mm | - | - | - |
| 1777821322 | 15.56° C | 95% | 975.1 hPa | 0 mm | - | - | - |
| 1777821022 | 15.56° C | 95% | 975.4 hPa | 0 mm | - | - | - |
| 1777817121 | 15.56° C | 92% | 976.2 hPa | 0 mm | - | - | - |
| 1777816821 | 15.56° C | 92% | 976.2 hPa | 0 mm | - | - | - |
| 1777814422 | 15.56° C | 92% | 976.7 hPa | 0 mm | - | - | - |
| 1777814122 | 15.56° C | 92% | 976.7 hPa | 0 mm | - | - | - |
| 1777811722 | 15.56° C | 88% | 977.4 hPa | 0 mm | - | - | - |
| 1777810521 | 16.11° C | 88% | 977.7 hPa | 0 mm | - | - | - |
| 1777810221 | 16.11° C | 87% | 978.1 hPa | 0 mm | - | - | - |
| 1777808121 | 16.11° C | 84% | 978 hPa | 0 mm | - | - | - |
| 1777807521 | 16.11° C | 85% | 978.2 hPa | 0 mm | - | - | - |
| 1777806622 | 16.11° C | 86% | 978.2 hPa | 0 mm | - | - | - |
| 1777806022 | 16.11° C | 85% | 978.1 hPa | 0 mm | - | - | - |
| 1777802721 | 17.78° C | 72% | 977.8 hPa | 0 mm | - | - | - |
| 1777802421 | 18.33° C | 71% | 977.6 hPa | 0 mm | - | - | - |
| 1777802121 | 18.89° C | 67% | 977.6 hPa | 0 mm | - | - | - |
| 1777801222 | 19.44° C | 63% | 977.9 hPa | 0 mm | - | - | - |
| 1777800922 | 19.44° C | 62% | 977.7 hPa | 0 mm | - | - | - |
| 1777800622 | 19.44° C | 60% | 977.7 hPa | 0 mm | - | - | - |
* Rain latest hour (hover to see other rain measurements)
** Current wind speed in m/s (hover to see current wind gust speed)